Back to catalog

TIANQI 17

AliveCommunicationsLEO
NORAD 64059·PAYLOAD·🇨🇳 China

Launched May 19, 2025 from Yellow Sea Launch Area

Loading…

Next Passes (next 24 hours)

TLE

FreshSource: Space-Track

Epoch: Sep 14, 2026, 16:26 UTC

1 64059U 25105B   26257.68534177  .00000073  00000-0  13791-3 0  9994
2 64059  44.9819 343.4736 0008884  90.5937 269.5913 13.99180041 67736

Track TIANQI 17 in real time with AllMySat

Download on the App Store